Airfield :
LOGIN :

Register | Disclaimer

   EN    FR    IT 

 










Legend :    VFR   Marginal VFR   IFR   Intensive IFR   Very Intensive IFR
Visi :
Ceiling :
>= 8 km
>= 3000ft
5 to 8 km
1000 to 3000 ft
1500m to 5 km
500 to 1000 ft
800 to 1500m
200 to 500 ft
< 800m
< 200 ft
Symbols :   Thunderstorms  Fog  Heavy snow  Heavy precipitations  Wind > 20 kt
SIGMETs :     Misc.  Thunderstorms  Icing  Turbulence  Mountain Waves  Volcanic Ashes







- Airport Elevation : 1036 ft
- IATA code : ERF


EDDE - Erfurt

CURRENT METAR :
  • 262320Z 20003KT CAVOK 17/11 Q1022

EXPIRED METARs :
  • 262250Z 01003KT 330V040 CAVOK 19/11 Q1022
  • 262220Z 05002KT CAVOK 20/11 Q1022
  • 262150Z VRB02KT CAVOK 20/11 Q1022
  • 262120Z VRB01KT CAVOK 20/12 Q1022
  • 262050Z 01003KT 320V110 CAVOK 20/12 Q1022

TAF TAF EDDE
Valid from the 27 at 00:00 until the 28 at 00:00 UTC


262300Z 2700/2724 07004KT CAVOK
No reported NOTAMs for that airfield.



MET'MAP, your aeronautical weather chart ! - Copyright ORBIFLY December 2007 - Disclaimer

ORBIFLY MET'MAP TEAM :

Programming & Development : Alexandra Zaïnal
Concept & Development : Baudouin d'Aumeries
Co-Development & Prog : Marc-Olivier Méhu
Technical & hardware support : Manuel Goepfert

Contact : metmap@orbifly.com




SOURCES & CREDITS :

   NOAA